Powrót do katalogu

COSMOS 2394

GLONASS

AktywnyNawigacjaMEO
NORAD 27617·PAYLOAD·🇷🇺 Russia

Wystrzelony Dec 25, 2002 z Baikonur Cosmodrome

Loading…

Następne Przeloty (najbliższe 24 godziny)

TLE

ŚwieżeSource: Space-Track

Epoka: Sep 13, 2026, 08:18 UTC

1 27617U 02060A   26256.34638576 -.00000051  00000-0  00000-0 0  9991
2 27617  65.3725 312.6704 0002332 277.9087  82.1404  2.13102579184604

Śledź COSMOS 2394 w czasie rzeczywistym z AllMySat

Download on the App Store